Location: Lawrence
(38.9720°N, 95.2350°W)
Time: 12:34:34
(UTC-06:00)

Amateur Radio Satellites - All Passes

Search period start: 18 December 2017 12:04
Search period end: 19 December 2017 12:04
Location: Lawrence, 38.9720°N, 95.2350°W

Satellite Date Start Highest point End Downlink Frequencies (MHz)
Time Altitude Azimuth
POLYITAN 1 18 Dec 12:16:57 12:20:35 29° 263° (W) 12:24:14 437.675
Gurwin Techsat 1B 18 Dec 12:19:08 12:23:16 24° 65° (ENE) 12:27:25 435.225
VELOX 1 18 Dec 12:26:14 12:29:49 24° 95° (E) 12:33:22 145.980
SPROUT 18 Dec 12:33:26 12:37:35 51° 100° (E) 12:41:43 437.525
NO-84 18 Dec 12:33:47 12:37:29 67° 43° (NE) 12:41:28 435.350 FM
Oscar 19 18 Dec 12:41:35 12:46:31 50° 72° (ENE) 12:51:31 437.125/150
DUCHIFAT 1 18 Dec 12:41:43 12:44:48 20° 265° (W) 12:47:54 145.980
YUBILEINY 18 Dec 12:42:48 12:49:46 25° 68° (ENE) 12:56:37 435.215
QB50P2 18 Dec 12:44:55 12:46:56 13° 268° (W) 12:48:56 145.880/145.840
ESTCUBE 1 18 Dec 12:48:09 12:51:56 26° 292° (WNW) 12:55:41 437.505/2401.250
LO-87 18 Dec 12:48:20 12:49:51 12° 293° (WNW) 12:51:22 145.935 - 145.965
ISS 18 Dec 12:52:36 12:53:25 11° 350° (N) 12:54:12 437.550
AO-91 18 Dec 12:56:41 13:01:27 69° 76° (ENE) 13:05:44 145.960
BUGSAT 1 18 Dec 13:04:11 13:08:05 46° 260° (W) 13:11:58 437.445
DX 1 18 Dec 13:09:23 13:11:42 14° 93° (E) 13:14:00 434.975-435.025
AO-7 18 Dec 13:30:30 13:37:15 29° 57° (ENE) 13:44:00 .
M-CUBED/EXP-1 PRIME 18 Dec 13:36:52 13:38:45 12° 57° (ENE) 13:40:39 437.505
RS-15 18 Dec 13:54:24 14:06:30 68° 114° (ESE) 14:18:34 29.354- 29.394
Gurwin Techsat 1B 18 Dec 13:57:54 14:02:55 43° 261° (W) 14:07:58 435.225
VELOX 1 18 Dec 14:02:26 14:06:12 28° 291° (WNW) 14:09:56 145.980
ITAMSAT 1 18 Dec 14:04:58 14:08:23 18° 63° (ENE) 14:11:48 435.822/435.867
50 SAT 18 Dec 14:05:02 14:08:10 73° 102° (ESE) 14:11:17 437.505
SPROUT 18 Dec 14:10:57 14:13:00 13° 295° (WNW) 14:15:03 437.525
NO-84 18 Dec 14:12:24 14:14:26 14° 236° (SW) 14:16:31 435.350 FM
UKube-1 18 Dec 14:18:47 14:22:59 53° 100° (E) 14:27:11 .
Oscar 19 18 Dec 14:22:41 14:26:06 18° 267° (W) 14:29:34 437.125/150
SO-50 18 Dec 14:28:58 14:33:23 69° 119° (ESE) 14:37:51 436.795
ISS 18 Dec 14:30:18 14:31:07 11° 10° (N) 14:31:56 437.550
AO-91 18 Dec 14:37:14 14:38:06 10° 268° (W) 14:38:57 145.960
YUBILEINY 18 Dec 14:38:32 14:47:17 68° 267° (W) 14:55:55 435.215
DX 1 18 Dec 14:43:57 14:48:06 46° 288° (WNW) 14:52:14 434.975-435.025
ITUPSAT 1 18 Dec 14:54:47 14:58:08 19° 94° (E) 15:01:28 437.325
MOZHAYETS 4 18 Dec 15:00:39 15:04:51 34° 97° (E) 15:09:04
DOVE 4 18 Dec 15:04:44 15:07:00 13° 63° (ENE) 15:09:15 437.250
nSIGHT-1 18 Dec 15:07:56 15:10:02 16° 21° (NNE) 15:12:09 .
M-CUBED/EXP-1 PRIME 18 Dec 15:08:02 15:12:25 75° 253° (WSW) 15:17:03 437.505
AO-7 18 Dec 15:21:09 15:29:22 66° 255° (WSW) 15:37:41 .
ITAMSAT 1 18 Dec 15:42:15 15:47:22 56° 259° (W) 15:52:29 435.822/435.867
UKube-1 18 Dec 15:56:25 15:58:31 14° 296° (WNW) 16:00:39 .
BEESAT 18 Dec 15:59:58 16:04:46 88° 278° (W) 16:09:32 436.000
ISS 18 Dec 16:05:28 16:08:26 30° 30° (NNE) 16:11:23 437.550
RS-15 18 Dec 16:08:22 16:19:47 42° 317° (NW) 16:31:06 29.354- 29.394
SO-50 18 Dec 16:11:37 16:14:19 15° 317° (NW) 16:17:02 436.795
XW-2B 18 Dec 16:27:39 16:27:55 10° 64° (ENE) 16:28:10 145.730 - 145.750
ITUPSAT 1 18 Dec 16:31:36 16:36:06 43° 289° (WNW) 16:40:36 437.325
XW-2F 18 Dec 16:34:27 16:35:52 12° 65° (ENE) 16:37:17 145.980 - 146.000
CUBESAT XI-V 18 Dec 16:35:25 16:40:09 83° 103° (ESE) 16:44:51 437.345
MOZHAYETS 4 18 Dec 16:38:12 16:41:47 23° 293° (WNW) 16:45:23
DOVE 4 18 Dec 16:38:48 16:44:03 78° 258° (WSW) 16:49:08 437.250
YUBILEINY 18 Dec 16:40:30 16:42:15 11° 287° (WNW) 16:44:00 435.215
nSIGHT-1 18 Dec 16:43:24 16:46:38 89° 33° (NNE) 16:49:50 .
O/OREOS (USA 219) 18 Dec 16:51:42 16:55:21 24° 60° (ENE) 16:58:58 437.305
XW-2C 18 Dec 16:52:28 16:55:21 21° 69° (ENE) 16:58:17 145.795 - 145.815
HO-68 18 Dec 17:06:18 17:11:39 23° 59° (ENE) 17:16:58 435.675
PCSat 18 Dec 17:23:03 17:28:05 41° 111° (ESE) 17:33:10 145.827
NUDT-PHONESAT 18 Dec 17:26:26 17:29:49 35° 73° (ENE) 17:33:14 437.300
CUTE 1.7 + AOD 2 18 Dec 17:29:55 17:32:33 16° 66° (ENE) 17:35:10 437.475
LilacSat-2 18 Dec 17:33:37 17:37:25 78° 78° (ENE) 17:41:17 437.200
KAITUO 1B 18 Dec 17:38:04 17:41:44 55° 76° (ENE) 17:45:27 145.475/437.950
CUTE-I 18 Dec 17:39:51 17:45:10 68° 74° (ENE) 17:50:31 437.470
XW-2D 18 Dec 17:41:41 17:45:27 86° 253° (WSW) 17:49:18 145.860 - 145.880
ISS 18 Dec 17:41:58 17:44:53 29° 226° (SW) 17:47:46 437.550
KKS-1 18 Dec 17:54:13 17:58:39 78° 286° (WNW) 18:03:04 437.445
BEESAT 3 18 Dec 17:57:27 17:59:02 12° 108° (ESE) 18:00:38 437.485
XW-2B 18 Dec 17:57:50 18:01:33 55° 260° (W) 18:05:19 145.730 - 145.750
XW-2F 18 Dec 18:05:54 18:09:31 45° 261° (W) 18:13:12 145.980 - 146.000
CUBESAT XI-V 18 Dec 18:16:08 18:16:47 10° 299° (WNW) 18:17:26 437.345
STARS 18 Dec 18:24:07 18:28:30 86° 103° (ESE) 18:32:51 437.465
XW-2A 18 Dec 18:25:21 18:26:49 12° 67° (ENE) 18:28:17 145.665 - 145.685
XW-2C 18 Dec 18:26:17 18:29:23 24° 265° (W) 18:32:31 145.795 - 145.815
RS-15 18 Dec 18:28:49 18:36:59 20° 350° (N) 18:45:00 29.354- 29.394
O/OREOS (USA 219) 18 Dec 18:30:49 18:34:44 30° 256° (WSW) 18:38:39 437.305
SEEDS 18 Dec 18:31:49 18:35:52 46° 74° (ENE) 18:39:57 437.485
AAUSAT CUBESAT 2 18 Dec 18:37:28 18:40:44 23° 69° (ENE) 18:44:01 437.432
STRAND 1 18 Dec 18:48:21 18:51:49 18° 93° (E) 18:55:15 437.568
BEESAT 2 18 Dec 18:48:43 18:50:11 12° 108° (ESE) 18:51:39 435.950
HO-68 18 Dec 18:51:33 18:58:42 69° 256° (WSW) 19:05:54 435.675
UWE-3 18 Dec 18:53:36 18:57:31 43° 73° (ENE) 19:01:28 435.000/436.395/437.385
NUDT-PHONESAT 18 Dec 19:01:58 19:03:46 13° 268° (W) 19:05:35 437.300
CUBEBUG 2 18 Dec 19:03:27 19:07:37 74° 257° (WSW) 19:11:47 437.445
CUTE 1.7 + AOD 2 18 Dec 19:03:58 19:08:00 42° 262° (W) 19:12:04 437.475
PCSat 18 Dec 19:06:59 19:11:36 28° 309° (NW) 19:16:14 145.827
ZACube-1 18 Dec 19:08:24 19:12:05 32° 71° (ENE) 19:15:49 437.345
FO-29 18 Dec 19:18:16 19:20:54 13° 85° (E) 19:23:25 435.910
Oscar 11 18 Dec 19:20:02 19:23:37 26° 69° (ENE) 19:27:14 .
CUTE-I 18 Dec 19:22:57 19:25:40 14° 269° (W) 19:28:24 437.470
BEESAT 3 18 Dec 19:32:11 19:36:04 53° 304° (WNW) 19:40:00 437.485
AO-73 18 Dec 19:38:58 19:43:03 65° 75° (ENE) 19:47:10 145.935
FALCONSAT 3 18 Dec 19:50:51 19:53:19 17° 156° (SSE) 19:55:48 435.103
XW-2A 18 Dec 19:56:09 19:59:10 31° 262° (W) 20:02:14 145.665 - 145.685
SEEDS 18 Dec 20:09:41 20:11:47 13° 269° (W) 20:13:53 437.485
AAUSAT CUBESAT 2 18 Dec 20:12:27 20:16:01 27° 264° (W) 20:19:37 437.432
BEESAT 2 18 Dec 20:23:26 20:27:23 55° 304° (WNW) 20:31:23 435.950
STRAND 1 18 Dec 20:26:19 20:31:14 49° 288° (WNW) 20:36:07 437.568
DELFI C3 18 Dec 20:30:09 20:33:35 28° 71° (ENE) 20:37:02 145.870
UWE-3 18 Dec 20:32:09 20:34:12 13° 268° (W) 20:36:15 435.000/436.395/437.385
ZACube-1 18 Dec 20:45:34 20:48:26 18° 267° (W) 20:51:20 437.345
RS-15 18 Dec 20:46:03 20:55:32 26° 27° (NNE) 21:04:37 29.354- 29.394
Oscar 11 18 Dec 20:56:06 20:59:40 25° 265° (W) 21:03:16 .
FO-29 18 Dec 21:00:20 21:07:01 84° 284° (WNW) 21:12:50 435.910
Max Valier Satellite 18 Dec 21:15:21 21:18:57 68° 76° (ENE) 21:22:37 145.860
AO-85 18 Dec 21:21:27 21:25:17 60° 304° (NW) 21:29:21 145.980
FALCONSAT 3 18 Dec 21:28:27 21:31:57 40° 170° (S) 21:35:25 435.103
EO-88 18 Dec 21:32:07 21:35:44 75° 77° (ENE) 21:39:24 145.990 - 145.960
LO-87 18 Dec 21:49:36 21:51:14 13° 67° (ENE) 21:52:53 145.935 - 145.965
DELFI C3 18 Dec 22:05:23 22:08:19 19° 266° (W) 22:11:15 145.870
ESTCUBE 1 18 Dec 22:09:51 22:13:22 23° 67° (ENE) 22:16:54 437.505/2401.250
TIGRISAT 18 Dec 22:18:36 22:23:01 87° 280° (W) 22:27:31 435.000
UNISAT 6 18 Dec 22:23:16 22:27:39 70° 284° (WNW) 22:32:06 437.425
FO-29 18 Dec 22:47:48 22:50:49 14° 306° (NW) 22:53:42 435.910
RS-15 18 Dec 22:58:48 23:10:38 71° 55° (NE) 23:21:47 29.354- 29.394
SO-50 18 Dec 23:01:08 23:05:36 44° 54° (NE) 23:10:08 436.795
FALCONSAT 3 18 Dec 23:07:13 23:10:46 46° 185° (S) 23:14:19 435.103
PRISM 18 Dec 23:10:01 23:14:06 77° 284° (WNW) 23:18:09 437.425
NANOSAT C BR1 18 Dec 23:20:46 23:22:46 13° 92° (E) 23:24:46 145.865
LO-87 18 Dec 23:21:04 23:24:18 34° 262° (W) 23:27:33 145.935 - 145.965
VELOX 1 18 Dec 23:22:32 23:25:43 20° 67° (ENE) 23:28:56 145.980
SPROUT 18 Dec 23:25:22 23:29:09 33° 71° (ENE) 23:32:57 437.525
AIST 2D 18 Dec 23:37:02 23:40:35 89° 258° (WSW) 23:44:07 435.315
EO-79 18 Dec 23:38:10 23:41:37 24° 96° (E) 23:45:03 145.935-145.965
ESTCUBE 1 18 Dec 23:45:55 23:49:57 32° 263° (W) 23:54:03 437.505/2401.250
POLYITAN 1 19 Dec 00:02:01 00:06:07 45° 100° (E) 00:10:11 437.675
DX 1 19 Dec 00:04:47 00:06:20 12° 63° (ENE) 00:07:54 434.975-435.025
DUCHIFAT 1 19 Dec 00:25:13 00:29:23 65° 101° (E) 00:33:34 145.980
QB50P2 19 Dec 00:28:04 00:32:19 76° 284° (WNW) 00:36:32 145.880/145.840
50 SAT 19 Dec 00:30:28 00:32:26 15° 69° (ENE) 00:34:23 437.505
SO-50 19 Dec 00:42:19 00:45:45 20° 249° (WSW) 00:49:13 436.795
FALCONSAT 3 19 Dec 00:46:29 00:49:29 23° 200° (SSW) 00:52:28 435.103
BUGSAT 1 19 Dec 00:47:03 00:50:23 24° 96° (E) 00:53:45 437.445
NANOSAT C BR1 19 Dec 00:54:39 00:58:42 47° 287° (WNW) 01:02:44 145.865
Oscar 19 19 Dec 00:55:09 00:58:52 20° 93° (E) 01:02:33 437.125/150
VELOX 1 19 Dec 00:57:45 01:01:53 37° 262° (W) 01:06:01 145.980
SPROUT 19 Dec 01:02:03 01:05:05 19° 266° (W) 01:08:08 437.525
UKube-1 19 Dec 01:11:47 01:15:46 38° 71° (ENE) 01:19:46 .
RS-15 19 Dec 01:12:30 01:21:57 31° 257° (WSW) 01:31:05 29.354- 29.394
EO-79 19 Dec 01:13:46 01:17:17 26° 291° (WNW) 01:20:47 145.935-145.965
DX 1 19 Dec 01:37:36 01:41:56 64° 258° (WSW) 01:46:18 434.975-435.025
POLYITAN 1 19 Dec 01:39:06 01:41:28 15° 295° (WNW) 01:43:51 437.675
YUBILEINY 19 Dec 01:42:39 01:49:52 30° 83° (E) 01:57:06 435.215
ITUPSAT 1 19 Dec 02:00:32 02:03:57 20° 65° (ENE) 02:07:23 437.325
MOZHAYETS 4 19 Dec 02:01:24 02:05:17 28° 69° (ENE) 02:09:11
50 SAT 19 Dec 02:01:40 02:04:09 21° 264° (W) 02:06:38 437.505
DUCHIFAT 1 19 Dec 02:03:34 02:04:29 11° 297° (WNW) 02:05:22 145.980
PCSat 19 Dec 02:12:05 02:16:43 28° 51° (NE) 02:21:19 145.827
Gurwin Techsat 1B 19 Dec 02:14:52 02:20:13 83° 103° (ESE) 02:25:32 435.225
BUGSAT 1 19 Dec 02:22:21 02:25:38 24° 291° (WNW) 02:28:57 437.445
AO-91 19 Dec 02:24:27 02:27:36 37° 287° (WNW) 02:30:45 145.960
Oscar 19 19 Dec 02:33:24 02:38:24 47° 289° (WNW) 02:43:21 437.125/150
JUGNU 19 Dec 02:40:17 02:40:44 10° 174° (S) 02:41:10 437.505
UKube-1 19 Dec 02:49:01 02:51:53 17° 266° (W) 02:54:47 .
BEESAT 19 Dec 03:04:50 03:09:35 88° 251° (WSW) 03:14:22 436.000
AO-7 19 Dec 03:24:06 03:32:07 47° 101° (E) 03:40:04 .
ITUPSAT 1 19 Dec 03:36:59 03:41:27 41° 261° (W) 03:45:58 437.325
CUBESAT XI-V 19 Dec 03:37:01 03:41:39 70° 75° (ENE) 03:46:20 437.345
YUBILEINY 19 Dec 03:37:27 03:46:04 57° 282° (WNW) 03:54:47 435.215
MOZHAYETS 4 19 Dec 03:38:35 03:42:22 26° 265° (W) 03:46:11
BEESAT 3 19 Dec 03:49:41 03:53:32 55° 56° (NE) 03:57:20 437.485
PCSat 19 Dec 03:55:09 04:00:14 42° 249° (WSW) 04:05:17 145.827
ITAMSAT 1 19 Dec 03:56:10 04:01:16 56° 101° (E) 04:06:19 435.822/435.867
Gurwin Techsat 1B 19 Dec 03:57:11 03:59:25 13° 300° (WNW) 04:01:38 435.225
AO-85 19 Dec 04:14:12 04:16:17 13° 41° (NE) 04:18:25 145.980
M-CUBED/EXP-1 PRIME 19 Dec 04:21:59 04:26:24 82° 287° (WNW) 04:30:28 437.505
JUGNU 19 Dec 04:27:56 04:28:46 10° 185° (S) 04:29:36 437.505
DOVE 4 19 Dec 04:39:49 04:43:33 28° 95° (E) 04:47:10 437.250
BEESAT 2 19 Dec 04:41:53 04:45:51 54° 56° (NE) 04:49:44 435.950
KKS-1 19 Dec 04:50:33 04:55:01 82° 76° (ENE) 04:59:30 437.445
AO-7 19 Dec 05:17:07 05:24:41 39° 299° (WNW) 05:32:13 .
XW-2D 19 Dec 05:17:39 05:18:30 11° 91° (E) 05:19:22 145.860 - 145.880
CUBESAT XI-V 19 Dec 05:18:25 05:19:28 11° 271° (W) 05:20:31 437.345
STARS 19 Dec 05:19:03 05:23:23 65° 74° (ENE) 05:27:43 437.465
NO-84 19 Dec 05:24:54 05:27:45 54° 319° (NW) 05:30:46 435.350 FM
SRMSAT 19 Dec 05:25:09 05:25:52 10° 173° (S) 05:26:35 437.500
BEESAT 3 19 Dec 05:29:27 05:30:32 11° 252° (WSW) 05:31:36 437.485
XW-2B 19 Dec 05:32:18 05:34:44 16° 93° (E) 05:37:08 145.730 - 145.750
ITAMSAT 1 19 Dec 05:36:52 05:40:15 18° 297° (WNW) 05:43:37 435.822/435.867
XW-2F 19 Dec 05:39:30 05:42:14 18° 94° (E) 05:44:55 145.980 - 146.000
AO-85 19 Dec 05:52:32 05:57:24 77° 58° (ENE) 06:02:35 145.980
CUTE-I 19 Dec 05:58:32 06:03:09 29° 96° (E) 06:07:43 437.470
XW-2C 19 Dec 05:59:06 06:02:40 35° 98° (E) 06:06:12 145.795 - 145.815
STRAND 1 19 Dec 06:02:57 06:06:59 24° 66° (ENE) 06:11:02 437.568
DOVE 4 19 Dec 06:17:43 06:21:06 22° 292° (WNW) 06:24:22 437.250
HO-68 19 Dec 06:21:25 06:27:06 25° 94° (E) 06:32:44 435.675
BEESAT 2 19 Dec 06:21:38 06:23:03 12° 252° (WSW) 06:24:27 435.950
NUDT-PHONESAT 19 Dec 06:30:42 06:34:25 59° 101° (E) 06:38:06 437.300
LilacSat-2 19 Dec 06:41:57 06:45:46 57° 285° (WNW) 06:49:33 437.200
KAITUO 1B 19 Dec 06:43:45 06:47:33 85° 287° (WNW) 06:51:19 145.475/437.950
UWE-3 19 Dec 06:47:03 06:47:18 10° 90° (E) 06:47:33 435.000/436.395/437.385
XW-2D 19 Dec 06:49:12 06:52:56 47° 285° (WNW) 06:56:36 145.860 - 145.880
CUTE 1.7 + AOD 2 19 Dec 06:49:48 06:53:44 34° 97° (E) 06:57:37 437.475
CUBEBUG 2 19 Dec 06:55:17 06:58:51 24° 96° (E) 07:02:28 437.445
STARS 19 Dec 06:59:26 07:00:06 10° 269° (W) 07:00:45 437.465
O/OREOS (USA 219) 19 Dec 07:02:24 07:06:31 33° 104° (ESE) 07:10:38 437.305
XW-2B 19 Dec 07:05:31 07:08:58 32° 288° (WNW) 07:12:22 145.730 - 145.750
FO-29 19 Dec 07:08:41 07:15:57 43° 67° (ENE) 07:23:08 435.910
SRMSAT 19 Dec 07:12:28 07:14:06 11° 184° (S) 07:15:44 437.500
XW-2F 19 Dec 07:13:02 07:16:19 27° 289° (WNW) 07:19:34 145.980 - 146.000
XW-2A 19 Dec 07:19:17 07:21:17 15° 93° (E) 07:23:17 145.665 - 145.685
AO-73 19 Dec 07:29:00 07:31:28 14° 92° (E) 07:33:55 145.935
XW-2C 19 Dec 07:34:14 07:36:31 15° 293° (WNW) 07:38:47 145.795 - 145.815
AO-85 19 Dec 07:35:08 07:37:19 13° 252° (WSW) 07:39:33 145.980
CUTE-I 19 Dec 07:38:26 07:43:09 33° 292° (WNW) 07:47:49 437.470
STRAND 1 19 Dec 07:41:10 07:45:55 39° 262° (W) 07:50:41 437.568
SEEDS 19 Dec 07:51:55 07:56:10 74° 284° (WNW) 08:00:21 437.485
AAUSAT CUBESAT 2 19 Dec 07:54:50 07:58:51 47° 99° (E) 08:02:50 437.432
HO-68 19 Dec 08:08:11 08:15:11 59° 291° (WNW) 08:22:08 435.675
UWE-3 19 Dec 08:19:45 08:24:06 68° 284° (WNW) 08:28:34 435.000/436.395/437.385
CUTE 1.7 + AOD 2 19 Dec 08:26:15 08:29:17 19° 293° (WNW) 08:32:19 437.475
CUBEBUG 2 19 Dec 08:31:42 08:35:24 28° 289° (WNW) 08:39:11 437.445
ZACube-1 19 Dec 08:32:49 08:37:16 87° 107° (ESE) 08:41:47 437.345
O/OREOS (USA 219) 19 Dec 08:42:19 08:45:58 23° 301° (WNW) 08:49:36 437.305
Oscar 11 19 Dec 08:43:23 08:47:44 63° 101° (E) 08:52:01 .
ISS 19 Dec 08:45:34 08:47:33 15° 130° (SE) 08:49:33 437.550
XW-2A 19 Dec 08:51:03 08:53:59 27° 288° (WNW) 08:56:55 145.665 - 145.685
FO-29 19 Dec 08:53:36 09:00:49 41° 264° (W) 09:08:07 435.910
AO-73 19 Dec 09:03:38 09:07:53 48° 286° (WNW) 09:12:12 145.935
TIGRISAT 19 Dec 09:15:54 09:20:08 68° 75° (ENE) 09:24:22 435.000
nSIGHT-1 19 Dec 09:19:20 09:22:26 48° 137° (SE) 09:25:33 .
UNISAT 6 19 Dec 09:20:37 09:24:54 85° 76° (ENE) 09:29:11 437.425
AAUSAT CUBESAT 2 19 Dec 09:31:46 09:33:52 14° 295° (WNW) 09:35:57 437.432
DELFI C3 19 Dec 09:41:55 09:45:47 53° 100° (E) 09:49:35 145.870
PRISM 19 Dec 09:57:22 10:01:28 61° 74° (ENE) 10:05:34 437.425
HO-68 19 Dec 10:00:17 10:01:25 10° 310° (NW) 10:02:33 435.675
AIST 2D 19 Dec 10:10:01 10:12:55 24° 71° (ENE) 10:15:50 435.315
Max Valier Satellite 19 Dec 10:19:40 10:23:24 71° 284° (WNW) 10:27:07 145.860
ISS 19 Dec 10:20:31 10:23:43 52° 325° (NW) 10:26:57 437.550
Oscar 11 19 Dec 10:21:44 10:23:17 12° 296° (WNW) 10:24:51 .
NO-84 19 Dec 10:22:18 10:23:12 11° 23° (NNE) 10:24:08 435.350 FM
EO-79 19 Dec 10:30:06 10:32:40 16° 66° (ENE) 10:35:15 145.935-145.965
EO-88 19 Dec 10:35:02 10:38:41 68° 284° (WNW) 10:42:19 145.990 - 145.960
LO-87 19 Dec 10:49:12 10:51:38 17° 94° (E) 10:54:04 145.935 - 145.965
POLYITAN 1 19 Dec 10:53:25 10:57:00 29° 70° (ENE) 11:00:38 437.675
nSIGHT-1 19 Dec 10:56:13 10:58:47 21° 334° (NNW) 11:01:22 .
DUCHIFAT 1 19 Dec 11:15:32 11:19:23 39° 72° (ENE) 11:23:16 145.980
DELFI C3 19 Dec 11:18:56 11:20:01 11° 295° (WNW) 11:21:04 145.870
QB50P2 19 Dec 11:18:57 11:23:06 65° 75° (ENE) 11:27:16 145.880/145.840
BUGSAT 1 19 Dec 11:36:30 11:38:48 15° 66° (ENE) 11:41:05 437.445
ESTCUBE 1 19 Dec 11:38:50 11:43:19 56° 100° (E) 11:47:44 437.505/2401.250
AIST 2D 19 Dec 11:43:42 11:46:03 17° 266° (W) 11:48:25 435.315
NANOSAT C BR1 19 Dec 11:44:48 11:48:57 79° 257° (WSW) 11:53:09 145.865
AO-91 19 Dec 11:46:13 11:47:39 11° 66° (ENE) 11:49:02 145.960
YUBILEINY 19 Dec 11:55:40 11:59:08 13° 59° (ENE) 12:02:36 435.215
Gurwin Techsat 1B 19 Dec 11:57:49 12:00:44 15° 61° (ENE) 12:03:38 435.225
ISS 19 Dec 11:59:09 12:00:49 13° 344° (NNW) 12:02:28 437.550
